User: anonymous   Login
Location: Bothell
(47.7630°N, 122.2040°W)
Time: 21:17:31
(UTC-07:00)
Language:

Oscar 16 - Orbit

View from above orbital plane
View from above orbital plane
View from above satellite
View from above satellite

Ground track
Ground track

The orbit data is extracted from the following two-line orbital elements,

1 20439U 90005D   17146.46512125 +.00000006 +00000-0 +18647-4 0  9993
2 20439 098.6083 085.9288 0009944 222.4194 252.8810 14.32680317428290
Epoch (UTC): 26 May 2017 11:09:46
Eccentricity: 0.0009944
inclination: 98.6083°
perigee height: 775 km
apogee height: 790 km
right ascension of ascending node: 85.9288°
argument of perigee: 222.4194°
revolutions per day: 14.32680317
mean anomaly at epoch: 252.8810°
orbit number at epoch: 42829

The dashed part of the orbit path shows where the satellite is in the earth's shadow,  

DLR